| time (UTC) | temp F | wind direction | speed MPH | gust MPH | rain 1hr in | rain 24hr in | rain mn in | humidity % | barometer mb |
| 20260903030521 | 83 | 0.0 | 0.0 | 0.00 | 0.00 | 0.00 | 62 | 1016.0 | |
| 20260903030348 | 82 | 0 | 0.0 | 0.0 | 0.00 | 0.00 | 0.00 | 61 | 1013.0 |
| 20260903025523 | 83 | 0.0 | 0.0 | 0.00 | 0.00 | 0.00 | 61 | 1015.9 | |
| 20260903024519 | 84 | 0.0 | 0.0 | 0.00 | 0.00 | 0.00 | 60 | 1015.7 | |
| 20260903023516 | 85 | 0.0 | 0.0 | 0.00 | 0.00 | 0.00 | 57 | 1015.5 | |
| 20260903023348 | 85 | 0 | 0.0 | 0.0 | 0.00 | 0.00 | 0.00 | 55 | 1012.0 |
| 20260903022530 | 86 | 0.0 | 0.0 | 0.00 | 0.00 | 0.00 | 55 | 1015.4 | |
| 20260903021532 | 87 | 135 | 0.0 | 2.0 | 0.00 | 0.00 | 0.00 | 54 | 1015.2 |
| 20260903020516 | 87 | 138 | 1.0 | 2.0 | 0.00 | 0.00 | 0.00 | 53 | 1015.0 |
| 20260903020348 | 87 | 163 | 0.0 | 2.0 | 0.00 | 0.00 | 0.00 | 52 | 1011.4 |
| 20260903015518 | 88 | 143 | 1.0 | 3.0 | 0.00 | 0.00 | 0.00 | 52 | 1014.9 |
| 20260903014520 | 89 | 113 | 0.0 | 3.0 | 0.00 | 0.00 | 0.00 | 51 | 1014.9 |
| 20260903013522 | 90 | 135 | 0.0 | 2.0 | 0.00 | 0.00 | 0.00 | 49 | 1014.9 |
| 20260903013348 | 90 | 132 | 1.0 | 3.0 | 0.00 | 0.00 | 0.00 | 48 | 1011.0 |
| 20260903012545 | 91 | 114 | 1.0 | 3.0 | 0.00 | 0.00 | 0.00 | 48 | 1014.8 |
| 20260903011547 | 91 | 101 | 4.0 | 8.0 | 0.00 | 0.00 | 0.00 | 46 | 1014.5 |
| 20260903010529 | 92 | 162 | 1.0 | 4.0 | 0.00 | 0.00 | 0.00 | 45 | 1014.5 |
| 20260903010348 | 92 | 155 | 0.0 | 2.0 | 0.00 | 0.00 | 0.00 | 44 | 1010.5 |
| 20260903005531 | 93 | 170 | 1.0 | 3.0 | 0.00 | 0.00 | 0.00 | 44 | 1014.5 |
| 20260903004533 | 94 | 158 | 0.0 | 1.0 | 0.00 | 0.00 | 0.00 | 41 | 1014.5 |
| 20260903003538 | 96 | 116 | 2.0 | 4.0 | 0.00 | 0.00 | 0.00 | 39 | 1014.5 |
| 20260903003348 | 96 | 133 | 1.0 | 3.0 | 0.00 | 0.00 | 0.00 | 39 | 1010.0 |
| 20260903002519 | 97 | 112 | 1.0 | 4.0 | 0.00 | 0.00 | 0.00 | 39 | 1014.5 |
| 20260903001519 | 96 | 126 | 3.0 | 5.0 | 0.00 | 0.00 | 0.00 | 39 | 1014.7 |
| 20260903000515 | 97 | 135 | 4.0 | 6.0 | 0.00 | 0.00 | 0.00 | 38 | 1014.8 |
| 20260903000348 | 97 | 116 | 3.0 | 5.0 | 0.00 | 0.00 | 0.00 | 38 | 1010.2 |
| 20260902235523 | 97 | 111 | 2.0 | 6.0 | 0.00 | 0.00 | 0.00 | 38 | 1014.8 |
| 20260902234525 | 98 | 113 | 3.0 | 5.0 | 0.00 | 0.00 | 0.00 | 37 | 1014.9 |
| 20260902233527 | 99 | 86 | 3.0 | 5.0 | 0.00 | 0.00 | 0.00 | 36 | 1014.9 |
| 20260902233348 | 99 | 121 | 2.0 | 5.0 | 0.00 | 0.00 | 0.00 | 35 | 1010.1 |
| 20260902232530 | 100 | 79 | 3.0 | 5.0 | 0.00 | 0.00 | 0.00 | 36 | 1014.9 |
| 20260902231531 | 100 | 147 | 2.0 | 4.0 | 0.00 | 0.00 | 0.00 | 35 | 1014.8 |
| 20260902230515 | 100 | 91 | 3.0 | 5.0 | 0.00 | 0.00 | 0.00 | 36 | 1014.8 |
| 20260902230348 | 100 | 131 | 4.0 | 6.0 | 0.00 | 0.00 | 0.00 | 35 | 1009.9 |
| 20260902225518 | 100 | 193 | 3.0 | 5.0 | 0.00 | 0.00 | 0.00 | 35 | 1014.8 |
| 20260902224519 | 100 | 154 | 3.0 | 5.0 | 0.00 | 0.00 | 0.00 | 34 | 1014.8 |
| 20260902223522 | 101 | 122 | 5.0 | 10.0 | 0.00 | 0.00 | 0.00 | 35 | 1014.8 |
| 20260902223348 | 100 | 160 | 4.0 | 5.0 | 0.00 | 0.00 | 0.00 | 35 | 1010.1 |
| 20260902222523 | 102 | 155 | 3.0 | 5.0 | 0.00 | 0.00 | 0.00 | 34 | 1015.0 |
| 20260902221525 | 102 | 136 | 3.0 | 5.0 | 0.00 | 0.00 | 0.00 | 33 | 1015.1 |
| 20260902220524 | 102 | 197 | 3.0 | 4.0 | 0.00 | 0.00 | 0.00 | 33 | 1015.1 |
| 20260902220348 | 102 | 214 | 4.0 | 6.0 | 0.00 | 0.00 | 0.00 | 32 | 1009.9 |
| 20260902215520 | 103 | 153 | 4.0 | 7.0 | 0.00 | 0.00 | 0.00 | 33 | 1015.2 |
| 20260902214516 | 103 | 64 | 2.0 | 6.0 | 0.00 | 0.00 | 0.00 | 32 | 1015.3 |
| 20260902213525 | 103 | 208 | 3.0 | 6.0 | 0.00 | 0.00 | 0.00 | 32 | 1015.3 |
| 20260902213348 | 102 | 97 | 3.0 | 4.0 | 0.00 | 0.00 | 0.00 | 32 | 1010.2 |
| 20260902212528 | 102 | 76 | 3.0 | 6.0 | 0.00 | 0.00 | 0.00 | 34 | 1015.3 |
| 20260902211528 | 104 | 34 | 3.0 | 5.0 | 0.00 | 0.00 | 0.00 | 31 | 1015.4 |
| 20260902210530 | 102 | 83 | 2.0 | 4.0 | 0.00 | 0.00 | 0.00 | 33 | 1015.6 |
| 20260902210348 | 102 | 158 | 2.0 | 4.0 | 0.00 | 0.00 | 0.00 | 33 | 1010.6 |
| 20260902205534 | 103 | 17 | 3.0 | 5.0 | 0.00 | 0.00 | 0.00 | 33 | 1015.9 |
| 20260902204517 | 104 | 36 | 3.0 | 4.0 | 0.00 | 0.00 | 0.00 | 33 | 1016.0 |
| 20260902203519 | 103 | 130 | 4.0 | 7.0 | 0.00 | 0.00 | 0.00 | 34 | 1016.1 |
| 20260902203348 | 102 | 22 | 2.0 | 6.0 | 0.00 | 0.00 | 0.00 | 35 | 1011.2 |
| 20260902202601 | 102 | 169 | 4.0 | 7.0 | 0.00 | 0.00 | 0.00 | 36 | 1016.2 |
| 20260902201523 | 106 | 88 | 4.0 | 6.0 | 0.00 | 0.00 | 0.00 | 33 | 1016.4 |
| 20260902200525 | 105 | 76 | 3.0 | 6.0 | 0.00 | 0.00 | 0.00 | 32 | 1016.8 |
| 20260902200348 | 102 | 256 | 3.0 | 4.0 | 0.00 | 0.00 | 0.00 | 34 | 1011.8 |
| 20260902195546 | 103 | 54 | 3.0 | 5.0 | 0.00 | 0.00 | 0.00 | 35 | 1016.9 |
| 20260902194528 | 103 | 36 | 3.0 | 6.0 | 0.00 | 0.00 | 0.00 | 36 | 1017.0 |
| 20260902193524 | 103 | 10 | 3.0 | 5.0 | 0.00 | 0.00 | 0.00 | 35 | 1017.1 |
| 20260902193348 | 102 | 14 | 3.0 | 5.0 | 0.00 | 0.00 | 0.00 | 35 | 1012.1 |
| 20260902192520 | 102 | 86 | 3.0 | 5.0 | 0.00 | 0.00 | 0.00 | 36 | 1017.2 |
| 20260902191518 | 100 | 95 | 3.0 | 5.0 | 0.00 | 0.00 | 0.00 | 38 | 1017.4 |
| 20260902190539 | 102 | 44 | 4.0 | 8.0 | 0.00 | 0.00 | 0.00 | 37 | 1017.7 |
| 20260902190348 | 101 | 140 | 4.0 | 8.0 | 0.00 | 0.00 | 0.00 | 37 | 1012.7 |
| 20260902185602 | 101 | 151 | 3.0 | 6.0 | 0.00 | 0.00 | 0.00 | 37 | 1017.7 |
| 20260902184523 | 103 | 17 | 3.0 | 6.0 | 0.00 | 0.00 | 0.00 | 37 | 1017.9 |
| 20260902183525 | 102 | 125 | 3.0 | 6.0 | 0.00 | 0.00 | 0.00 | 37 | 1018.0 |
| 20260902183348 | 102 | 48 | 3.0 | 4.0 | 0.00 | 0.00 | 0.00 | 37 | 1013.1 |
| 20260902182528 | 101 | 148 | 3.0 | 5.0 | 0.00 | 0.00 | 0.00 | 38 | 1018.1 |
| 20260902181530 | 101 | 282 | 2.0 | 4.0 | 0.00 | 0.00 | 0.00 | 38 | 1018.5 |
| 20260902181348 | 101 | 269 | 3.0 | 5.0 | 0.00 | 0.00 | 0.00 | 36 | 1013.7 |
| 20260902180532 | 100 | 275 | 4.0 | 5.0 | 0.00 | 0.00 | 0.00 | 38 | 1018.7 |
| 20260902175516 | 98 | 144 | 5.0 | 8.0 | 0.00 | 0.00 | 0.00 | 41 | 1018.7 |
| 20260902175348 | 98 | 136 | 4.0 | 6.0 | 0.00 | 0.00 | 0.00 | 40 | 1014.1 |
| 20260902174538 | 99 | 145 | 4.0 | 6.0 | 0.00 | 0.00 | 0.00 | 41 | 1018.9 |
| 20260902174348 | 97 | 135 | 3.0 | 6.0 | 0.00 | 0.00 | 0.00 | 42 | 1014.4 |
| 20260902173521 | 99 | 193 | 4.0 | 6.0 | 0.00 | 0.00 | 0.00 | 41 | 1019.0 |
| 20260902173348 | 98 | 118 | 4.0 | 6.0 | 0.00 | 0.00 | 0.00 | 42 | 1014.6 |
| 20260902172848 | 97 | 104 | 5.0 | 7.0 | 0.00 | 0.00 | 0.00 | 42 | 1014.6 |
| 20260902172524 | 98 | 105 | 5.0 | 7.0 | 0.00 | 0.00 | 0.00 | 42 | 1019.2 |